Weather History for Bellefontaine, OH

Change the Weather History Date:

Wednesday, August 14, 2013

  Actual Average (KDAY) Record (KDAY)
Temperature  
Mean Temperature 55 °F 73 °F  
Max Temperature 66 °F 83 °F 96 °F (1901)
Min Temperature 44 °F 63 °F 44 °F (1964)
Degree Days  
Heating Degree Days 10 0  
Month to date heating degree days 0  
Since 1 June heating degree days 22  
Since 1 July heating degree days 0  
Cooling Degree Days 0 8  
Month to date cooling degree days 118  
Year to date cooling degree days 657  
Since 1 June cooling degree days 587  
Growing Degree Days 5 (Base 50)    
Moisture  
Dew Point 47 °F    
Average Humidity 79    
Maximum Humidity 100    
Minimum Humidity 52    
Precipitation  
Precipitation 0.00 in 0.09 in 1.06 in (2010)
Month to date precipitation 1.30  
Year to date precipitation 26.62  
Snow  
Snow 0.00 in 0.00 in 0.00 in ()
Month to date snowfall 0.0  
Since 1 June snowfall 0.0  
Since 1 July snowfall 0.0  
Snow Depth -    
Sea Level Pressure  
Sea Level Pressure 30.13 in    
Wind  
Wind Speed 3 mph (North)    
Max Wind Speed 9 mph    
Max Gust Speed 21 mph    
Visibility 10 miles    
Events      
T = Trace of Precipitation, MM = Missing Value Source: NWS Daily Summary

Daily Weather History Graph

Daily Weather History Graph

Search for Another Location

Airport:

Trip Planner

Search our weather history database for the weather conditions in past years. The results will help you decide how hot, cold, wet, or windy it might be!

Date:

Astronomy

Aug. 14, 2013 Rise Set
Actual Time 6:45 AM EDT 8:33 PM EDT
Civil Twilight 6:16 AM EDT 9:02 PM EDT
Nautical Twilight 5:40 AM EDT 9:38 PM EDT
Astronomical Twilight 5:02 AM EDT 10:16 PM EDT
Moon 2:44 PM EDT (8/14) 12:07 AM EDT (8/14)
Length of Visible Light 14h 46m
Length of Day
13h 48m
First Quarter, 52% of the Moon is Illuminated
Aug 14
First Quarter
Aug 20
Full
Aug 28
Last Quarter
Sep 5
New
Sep 12
First Quarter

Hourly Weather History & Observations

Time (EDT) Temp. Windchill Dew Point Humidity Pressure Visibility Wind Dir Wind Speed Gust Speed Precip Events Conditions
12:15 AM 51.8 °F - 50.0 °F 94% 30.06 in 10.0 mi Calm Calm - 0.00 in   Clear
12:35 AM 50.0 °F - 48.2 °F 94% 30.06 in 10.0 mi Calm Calm - 0.00 in   Clear
12:55 AM 50.0 °F - 50.0 °F 100% 30.06 in 10.0 mi Calm Calm - 0.00 in   Clear
1:15 AM 48.2 °F - 48.2 °F 100% 30.06 in 10.0 mi Calm Calm - 0.00 in   Clear
1:35 AM 48.2 °F - 48.2 °F 100% 30.07 in 10.0 mi Calm Calm - 0.00 in   Clear
1:55 AM 48.2 °F - 48.2 °F 100% 30.06 in 10.0 mi Calm Calm - 0.00 in   Clear
2:15 AM 46.4 °F - 46.4 °F 100% 30.06 in 10.0 mi Calm Calm - 0.00 in   Clear
2:35 AM 46.4 °F - 46.4 °F 100% 30.07 in 10.0 mi Calm Calm - 0.00 in   Clear
2:55 AM 48.2 °F - 48.2 °F 100% 30.06 in 10.0 mi Calm Calm - 0.00 in   Clear
3:15 AM 48.2 °F - 48.2 °F 100% 30.06 in 10.0 mi Calm Calm - 0.00 in   Clear
3:35 AM 48.2 °F - 48.2 °F 100% 30.06 in 10.0 mi Calm Calm - 0.00 in   Clear
3:55 AM 48.2 °F - 48.2 °F 100% 30.07 in 10.0 mi North 3.5 mph - 0.00 in   Clear
4:15 AM 48.2 °F - 48.2 °F 100% 30.07 in 10.0 mi North 4.6 mph - 0.00 in   Clear
4:35 AM 46.4 °F 45.2 °F 46.4 °F 100% 30.08 in 10.0 mi North 3.5 mph - 0.00 in   Clear
4:55 AM 46.4 °F 45.2 °F 46.4 °F 100% 30.08 in 10.0 mi North 3.5 mph - 0.00 in   Clear
5:15 AM 46.4 °F 43.5 °F 46.4 °F 100% 30.09 in 10.0 mi North 5.8 mph - 0.00 in   Clear
5:35 AM 46.4 °F - 44.6 °F 93% 30.09 in 10.0 mi North - - 0.00 in   Clear
5:55 AM 46.4 °F - 46.4 °F 100% 30.10 in 10.0 mi North - - 0.00 in   Clear
6:15 AM 46.4 °F 44.3 °F 46.4 °F 100% 30.10 in 10.0 mi North 4.6 mph - 0.00 in   Clear
6:35 AM 44.6 °F - 44.6 °F 100% 30.11 in 10.0 mi Calm Calm - 0.00 in   Clear
6:55 AM 44.6 °F - 44.6 °F 100% 30.11 in 10.0 mi Calm Calm - 0.00 in   Clear
7:15 AM 46.4 °F - 46.4 °F 100% 30.12 in 10.0 mi Calm Calm - 0.00 in   Clear
7:35 AM 46.4 °F 45.2 °F 46.4 °F 100% 30.12 in 10.0 mi North 3.5 mph - 0.00 in   Clear
7:55 AM 48.2 °F - 46.4 °F 93% 30.13 in 10.0 mi North 3.5 mph - 0.00 in   Clear
8:15 AM 50.0 °F - 46.4 °F 87% 30.14 in 10.0 mi North 3.5 mph - 0.00 in   Clear
8:35 AM 51.8 °F - 48.2 °F 88% 30.14 in 10.0 mi North 6.9 mph - 0.00 in   Clear
8:55 AM 53.6 °F - 48.2 °F 82% 30.14 in 10.0 mi North 8.1 mph - 0.00 in   Clear
9:15 AM 53.6 °F - 48.2 °F 82% 30.15 in 10.0 mi North 9.2 mph - 0.00 in   Clear
9:35 AM 53.6 °F - 46.4 °F 77% 30.15 in 10.0 mi NNE 8.1 mph - 0.00 in   Clear
9:55 AM 55.4 °F - 46.4 °F 72% 30.16 in 10.0 mi North 8.1 mph - 0.00 in   Clear
10:15 AM 57.2 °F - 48.2 °F 72% 30.16 in 10.0 mi NNW 8.1 mph - 0.00 in   Partly Cloudy
10:35 AM 57.2 °F - 48.2 °F 72% 30.17 in 10.0 mi North 6.9 mph - 0.00 in   Scattered Clouds
10:55 AM 57.2 °F - 46.4 °F 67% 30.17 in 10.0 mi North 8.1 mph - 0.00 in   Scattered Clouds
11:15 AM 60.8 °F - 46.4 °F 59% 30.17 in 10.0 mi North 9.2 mph - 0.00 in   Mostly Cloudy
11:35 AM 60.8 °F - 46.4 °F 59% 30.17 in 10.0 mi NNE 5.8 mph - 0.00 in   Scattered Clouds
11:55 AM 59.0 °F - 46.4 °F 63% 30.17 in 10.0 mi NNE 6.9 mph - 0.00 in   Partly Cloudy
12:15 PM 60.8 °F - 46.4 °F 59% 30.17 in 10.0 mi NNW 8.1 mph - 0.00 in   Clear
12:35 PM 62.6 °F - 46.4 °F 55% 30.16 in 10.0 mi NNW 9.2 mph - 0.00 in   Scattered Clouds
12:55 PM 62.6 °F - 46.4 °F 55% 30.16 in 10.0 mi NNW 8.1 mph 20.7 mph 0.00 in   Mostly Cloudy
1:10 PM 62.6 °F - 46.4 °F 55% 30.16 in 10.0 mi North 8.1 mph - 0.00 in   Scattered Clouds
1:35 PM 62.6 °F - 46.4 °F 55% 30.16 in 10.0 mi North 8.1 mph - 0.00 in   Scattered Clouds
1:50 PM 62.6 °F - 46.4 °F 55% 30.16 in 10.0 mi North 9.2 mph - 0.00 in   Mostly Cloudy
2:10 PM 62.6 °F - 46.4 °F 55% 30.16 in 10.0 mi North 5.8 mph - 0.00 in   Mostly Cloudy
2:30 PM 62.6 °F - 46.4 °F 55% 30.16 in 10.0 mi NW 5.8 mph - 0.00 in   Mostly Cloudy
2:50 PM 64.4 °F - 46.4 °F 52% 30.16 in 10.0 mi NNW 9.2 mph - 0.00 in   Mostly Cloudy
3:55 PM 64.4 °F - 46.4 °F 52% 30.16 in 10.0 mi North 4.6 mph - 0.00 in   Overcast
4:15 PM 64.4 °F - 46.4 °F 52% 30.16 in 10.0 mi North 6.9 mph - 0.00 in   Mostly Cloudy
4:30 PM 64.4 °F - 46.4 °F 52% 30.16 in 10.0 mi WNW 3.5 mph - 0.00 in   Mostly Cloudy
4:55 PM 64.4 °F - 46.4 °F 52% 30.15 in 10.0 mi Calm Calm - 0.00 in   Overcast
5:15 PM 64.4 °F - 46.4 °F 52% 30.15 in 10.0 mi Calm Calm - 0.00 in   Mostly Cloudy
5:35 PM 64.4 °F - 46.4 °F 52% 30.15 in 10.0 mi NNE 3.5 mph - 0.00 in   Mostly Cloudy
5:55 PM 64.4 °F - 46.4 °F 52% 30.15 in 10.0 mi Calm Calm - 0.00 in   Scattered Clouds
6:15 PM 66.2 °F - 48.2 °F 52% 30.15 in 10.0 mi Calm Calm - 0.00 in   Clear
6:35 PM 64.4 °F - 46.4 °F 52% 30.15 in 10.0 mi NNW 4.6 mph - 0.00 in   Scattered Clouds
6:55 PM 64.4 °F - 48.2 °F 56% 30.14 in 10.0 mi Calm Calm - 0.00 in   Mostly Cloudy
7:10 PM 64.4 °F - 46.4 °F 52% 30.14 in 10.0 mi NW 4.6 mph - 0.00 in   Mostly Cloudy
7:35 PM 64.4 °F - 48.2 °F 56% 30.14 in 10.0 mi NW 3.5 mph - 0.00 in   Overcast
7:55 PM 64.4 °F - 46.4 °F 52% 30.14 in 10.0 mi North 4.6 mph - 0.00 in   Overcast
8:15 PM 62.6 °F - 51.8 °F 68% 30.14 in 10.0 mi Calm Calm - 0.00 in   Mostly Cloudy
8:35 PM 60.8 °F - 51.8 °F 72% 30.14 in 10.0 mi Calm Calm - 0.00 in   Partly Cloudy
8:55 PM 57.2 °F - 50.0 °F 77% 30.14 in 10.0 mi Calm Calm - 0.00 in   Clear
9:15 PM 53.6 °F - 50.0 °F 88% 30.15 in 10.0 mi Calm Calm - 0.00 in   Clear
9:35 PM 53.6 °F - 50.0 °F 88% 30.15 in 10.0 mi Calm Calm - 0.00 in   Clear
9:55 PM 51.8 °F - 51.8 °F 100% 30.16 in 10.0 mi Calm Calm - 0.00 in   Clear
10:15 PM 51.8 °F - 51.8 °F 100% 30.17 in 10.0 mi Calm Calm - 0.00 in   Clear
10:35 PM 51.8 °F - 50.0 °F 94% 30.17 in 10.0 mi Calm Calm - 0.00 in   Clear
10:55 PM 50.0 °F - 48.2 °F 94% 30.17 in 10.0 mi Calm Calm - 0.00 in   Clear
11:15 PM 50.0 °F - 48.2 °F 94% 30.17 in 10.0 mi Calm Calm - 0.00 in   Clear
11:35 PM 48.2 °F - 48.2 °F 100% 30.17 in 10.0 mi Calm Calm - 0.00 in   Clear
11:55 PM 48.2 °F - 48.2 °F 100% 30.17 in 10.0 mi Calm Calm - 0.00 in   Clear